owner,sensor,date,latitude,longitude,vertical_datum,wind_speed,wind_to_direction,wind_speed_of_gust,qcFlag 
TCOON,ioos:station:TCOON:009:1,2017-03-01T00:00:00Z,27.8398,-97.0727,0.0,4.5,147.0,8.0,'11111222,11111222,11111222' 
TCOON,ioos:station:TCOON:009:1,2017-03-01T00:06:00Z,27.8398,-97.0727,0.0,4.3,148.0,7.0,'11111222,11111222,11111222' 
TCOON,ioos:station:TCOON:009:1,2017-03-01T00:12:00Z,27.8398,-97.0727,0.0,4.4,148.0,7.3,'11111222,11111222,11111222' 
TCOON,ioos:station:TCOON:009:1,2017-03-01T00:18:00Z,27.8398,-97.0727,0.0,4.4,148.0,7.3,'1111122,1111122,1111122' 
TCOON,ioos:station:TCOON:009:1,2017-03-01T00:24:00Z,27.8398,-97.0727,0.0,4.6,145.0,8.7,'11111222,11111222,11111222' 
TCOON,ioos:station:TCOON:009:1,2017-03-01T00:30:00Z,27.8398,-97.0727,0.0,3.7,151.0,8.5,'11111222,11111222,11111222' 
TCOON,ioos:station:TCOON:009:1,2017-03-01T00:36:00Z,27.8398,-97.0727,0.0,4.7,149.0,7.9,'11111222,11111222,11111222' 
TCOON,ioos:station:TCOON:009:1,2017-03-01T00:42:00Z,27.8398,-97.0727,0.0,4.8,142.0,7.4,'11111222,11111222,11111222' 
TCOON,ioos:station:TCOON:009:1,2017-03-01T00:48:00Z,27.8398,-97.0727,0.0,4.3,140.0,5.9,'11111222,11111222,11111222' 
TCOON,ioos:station:TCOON:009:1,2017-03-01T00:54:00Z,27.8398,-97.0727,0.0,3.7,146.0,6.3,'11111222,11111222,11111222' 
TCOON,ioos:station:TCOON:009:1,2017-03-01T01:00:00Z,27.8398,-97.0727,0.0,3.9,143.0,6.9,'11111222,11111222,11111222' 
TCOON,ioos:station:TCOON:009:1,2017-03-01T01:06:00Z,27.8398,-97.0727,0.0,4.3,143.0,7.6,'11111222,11111222,11111222' 
TCOON,ioos:station:TCOON:009:1,2017-03-01T01:12:00Z,27.8398,-97.0727,0.0,4.6,142.0,8.5,'11111222,11111222,11111222' 
TCOON,ioos:station:TCOON:009:1,2017-03-01T01:18:00Z,27.8398,-97.0727,0.0,4.6,142.0,8.5,'1111122,1111122,1111122' 
TCOON,ioos:station:TCOON:009:1,2017-03-01T01:24:00Z,27.8398,-97.0727,0.0,3.9,144.0,6.8,'11111222,11111222,11111222' 
TCOON,ioos:station:TCOON:009:1,2017-03-01T01:30:00Z,27.8398,-97.0727,0.0,4.6,144.0,8.5,'11111222,11111222,11111222' 
TCOON,ioos:station:TCOON:009:1,2017-03-01T01:36:00Z,27.8398,-97.0727,0.0,4.6,141.0,8.5,'11111222,11111222,11111222' 
TCOON,ioos:station:TCOON:009:1,2017-03-01T01:42:00Z,27.8398,-97.0727,0.0,6.5,144.0,9.2,'11111222,11111222,11111222' 
TCOON,ioos:station:TCOON:009:1,2017-03-01T01:48:00Z,27.8398,-97.0727,0.0,4.2,148.0,8.4,'11111222,11111222,11111222' 
TCOON,ioos:station:TCOON:009:1,2017-03-01T01:54:00Z,27.8398,-97.0727,0.0,4.5,140.0,9.7,'11111222,11111222,11111222' 
TCOON,ioos:station:TCOON:009:1,2017-03-01T02:00:00Z,27.8398,-97.0727,0.0,3.6,145.0,7.7,'11111222,11111222,11111222' 
TCOON,ioos:station:TCOON:009:1,2017-03-01T02:06:00Z,27.8398,-97.0727,0.0,4.6,149.0,7.4,'11111222,11111222,11111222' 
TCOON,ioos:station:TCOON:009:1,2017-03-01T02:12:00Z,27.8398,-97.0727,0.0,5.0,147.0,7.6,'11111222,11111222,11111222' 
TCOON,ioos:station:TCOON:009:1,2017-03-01T02:18:00Z,27.8398,-97.0727,0.0,5.0,147.0,7.6,'1111122,1111122,1111122' 
TCOON,ioos:station:TCOON:009:1,2017-03-01T02:24:00Z,27.8398,-97.0727,0.0,4.9,164.0,7.3,'11111222,11111222,11111222' 
TCOON,ioos:station:TCOON:009:1,2017-03-01T02:30:00Z,27.8398,-97.0727,0.0,4.4,165.0,8.3,'11111222,11111222,11111222' 
TCOON,ioos:station:TCOON:009:1,2017-03-01T02:36:00Z,27.8398,-97.0727,0.0,6.1,164.0,8.2,'11111222,11111222,11111222' 
TCOON,ioos:station:TCOON:009:1,2017-03-01T02:42:00Z,27.8398,-97.0727,0.0,5.2,159.0,7.7,'11111222,11111222,11111222' 
TCOON,ioos:station:TCOON:009:1,2017-03-01T02:48:00Z,27.8398,-97.0727,0.0,5.0,162.0,6.8,'11111222,11111222,11111222' 
TCOON,ioos:station:TCOON:009:1,2017-03-01T02:54:00Z,27.8398,-97.0727,0.0,6.1,167.0,9.1,'11111222,11111222,11111222' 
TCOON,ioos:station:TCOON:009:1,2017-03-01T03:00:00Z,27.8398,-97.0727,0.0,4.8,170.0,8.5,'11111222,11111222,11111222' 
TCOON,ioos:station:TCOON:009:1,2017-03-01T03:06:00Z,27.8398,-97.0727,0.0,5.3,167.0,7.9,'11111222,11111222,11111222' 
TCOON,ioos:station:TCOON:009:1,2017-03-01T03:12:00Z,27.8398,-97.0727,0.0,5.9,168.0,9.1,'11111222,11111222,11111222' 
TCOON,ioos:station:TCOON:009:1,2017-03-01T03:18:00Z,27.8398,-97.0727,0.0,5.9,168.0,9.1,'1111122,1111122,1111122' 
TCOON,ioos:station:TCOON:009:1,2017-03-01T03:24:00Z,27.8398,-97.0727,0.0,4.8,169.0,7.8,'11111222,11111222,11111222' 
TCOON,ioos:station:TCOON:009:1,2017-03-01T03:30:00Z,27.8398,-97.0727,0.0,5.1,168.0,8.3,'11111222,11111222,11111222' 
TCOON,ioos:station:TCOON:009:1,2017-03-01T03:36:00Z,27.8398,-97.0727,0.0,5.0,167.0,7.8,'11111222,11111222,11111222' 
TCOON,ioos:station:TCOON:009:1,2017-03-01T03:42:00Z,27.8398,-97.0727,0.0,4.3,168.0,7.5,'11111222,11111222,11111222' 
TCOON,ioos:station:TCOON:009:1,2017-03-01T03:48:00Z,27.8398,-97.0727,0.0,3.4,162.0,5.7,'11111222,11111222,11111222' 
TCOON,ioos:station:TCOON:009:1,2017-03-01T03:54:00Z,27.8398,-97.0727,0.0,4.4,166.0,7.7,'11111222,11111222,11111222' 
TCOON,ioos:station:TCOON:009:1,2017-03-01T04:00:00Z,27.8398,-97.0727,0.0,4.6,170.0,7.4,'11111222,11111222,11111222' 
TCOON,ioos:station:TCOON:009:1,2017-03-01T04:06:00Z,27.8398,-97.0727,0.0,5.4,170.0,8.9,'11111222,11111222,11111222' 
TCOON,ioos:station:TCOON:009:1,2017-03-01T04:12:00Z,27.8398,-97.0727,0.0,6.1,167.0,7.9,'11111222,11111222,11111222' 
TCOON,ioos:station:TCOON:009:1,2017-03-01T04:18:00Z,27.8398,-97.0727,0.0,6.1,167.0,7.9,'1111122,1111122,1111122' 
TCOON,ioos:station:TCOON:009:1,2017-03-01T04:24:00Z,27.8398,-97.0727,0.0,4.6,171.0,7.8,'11111222,11111222,11111222' 
TCOON,ioos:station:TCOON:009:1,2017-03-01T04:30:00Z,27.8398,-97.0727,0.0,3.5,166.0,6.2,'11111222,11111222,11111222' 
TCOON,ioos:station:TCOON:009:1,2017-03-01T04:36:00Z,27.8398,-97.0727,0.0,4.6,176.0,7.8,'11111222,11111222,11111222' 
TCOON,ioos:station:TCOON:009:1,2017-03-01T04:42:00Z,27.8398,-97.0727,0.0,4.7,174.0,7.6,'11111222,11111222,11111222' 
TCOON,ioos:station:TCOON:009:1,2017-03-01T04:48:00Z,27.8398,-97.0727,0.0,4.4,172.0,7.8,'11111222,11111222,11111222' 
TCOON,ioos:station:TCOON:009:1,2017-03-01T04:54:00Z,27.8398,-97.0727,0.0,4.7,170.0,7.0,'11111222,11111222,11111222' 
TCOON,ioos:station:TCOON:009:1,2017-03-01T05:00:00Z,27.8398,-97.0727,0.0,4.4,171.0,7.2,'11111222,11111222,11111222' 
TCOON,ioos:station:TCOON:009:1,2017-03-01T05:06:00Z,27.8398,-97.0727,0.0,3.8,167.0,7.2,'11111222,11111222,11111222' 
TCOON,ioos:station:TCOON:009:1,2017-03-01T05:12:00Z,27.8398,-97.0727,0.0,4.7,165.0,7.3,'11111222,11111222,11111222' 
TCOON,ioos:station:TCOON:009:1,2017-03-01T05:18:00Z,27.8398,-97.0727,0.0,4.7,165.0,7.3,'1111122,1111122,1111122' 
TCOON,ioos:station:TCOON:009:1,2017-03-01T05:24:00Z,27.8398,-97.0727,0.0,4.5,166.0,6.8,'11111222,11111222,11111222' 
TCOON,ioos:station:TCOON:009:1,2017-03-01T05:30:00Z,27.8398,-97.0727,0.0,5.5,168.0,7.2,'11111222,11111222,11111222' 
TCOON,ioos:station:TCOON:009:1,2017-03-01T05:36:00Z,27.8398,-97.0727,0.0,5.8,170.0,8.4,'11111222,11111222,11111222' 
TCOON,ioos:station:TCOON:009:1,2017-03-01T05:42:00Z,27.8398,-97.0727,0.0,6.2,166.0,9.0,'11111222,11111222,11111222' 
TCOON,ioos:station:TCOON:009:1,2017-03-01T05:48:00Z,27.8398,-97.0727,0.0,5.1,168.0,8.0,'11111222,11111222,11111222' 
TCOON,ioos:station:TCOON:009:1,2017-03-01T05:54:00Z,27.8398,-97.0727,0.0,5.8,166.0,9.1,'11111222,11111222,11111222' 
TCOON,ioos:station:TCOON:009:1,2017-03-01T06:00:00Z,27.8398,-97.0727,0.0,6.3,170.0,8.8,'11111222,11111222,11111222' 
TCOON,ioos:station:TCOON:009:1,2017-03-01T06:06:00Z,27.8398,-97.0727,0.0,5.9,167.0,8.4,'11111222,11111222,11111222' 
TCOON,ioos:station:TCOON:009:1,2017-03-01T06:12:00Z,27.8398,-97.0727,0.0,5.9,167.0,9.5,'11111222,11111222,11111222' 
TCOON,ioos:station:TCOON:009:1,2017-03-01T06:18:00Z,27.8398,-97.0727,0.0,5.9,167.0,9.5,'1111122,1111122,1111122' 
TCOON,ioos:station:TCOON:009:1,2017-03-01T06:24:00Z,27.8398,-97.0727,0.0,4.9,162.0,10.9,'11111222,11111222,11111222' 
TCOON,ioos:station:TCOON:009:1,2017-03-01T06:30:00Z,27.8398,-97.0727,0.0,6.4,168.0,8.7,'11111222,11111222,11111222' 
TCOON,ioos:station:TCOON:009:1,2017-03-01T06:36:00Z,27.8398,-97.0727,0.0,6.2,170.0,10.5,'11111222,11111222,11111222' 
TCOON,ioos:station:TCOON:009:1,2017-03-01T06:42:00Z,27.8398,-97.0727,0.0,6.0,168.0,9.7,'11111222,11111222,11111222' 
TCOON,ioos:station:TCOON:009:1,2017-03-01T06:48:00Z,27.8398,-97.0727,0.0,6.6,171.0,9.2,'11111222,11111222,11111222' 
TCOON,ioos:station:TCOON:009:1,2017-03-01T06:54:00Z,27.8398,-97.0727,0.0,5.5,166.0,10.0,'11111222,11111222,11111222' 
TCOON,ioos:station:TCOON:009:1,2017-03-01T07:00:00Z,27.8398,-97.0727,0.0,5.9,169.0,8.8,'11111222,11111222,11111222' 
TCOON,ioos:station:TCOON:009:1,2017-03-01T07:06:00Z,27.8398,-97.0727,0.0,6.7,169.0,9.8,'11111222,11111222,11111222' 
TCOON,ioos:station:TCOON:009:1,2017-03-01T07:12:00Z,27.8398,-97.0727,0.0,6.4,169.0,11.4,'11111222,11111222,11111222' 
TCOON,ioos:station:TCOON:009:1,2017-03-01T07:18:00Z,27.8398,-97.0727,0.0,6.4,169.0,11.4,'1111122,1111122,1111122' 
TCOON,ioos:station:TCOON:009:1,2017-03-01T07:24:00Z,27.8398,-97.0727,0.0,7.4,167.0,10.5,'11111222,11111222,11111222' 
TCOON,ioos:station:TCOON:009:1,2017-03-01T07:30:00Z,27.8398,-97.0727,0.0,5.8,170.0,9.2,'11111222,11111222,11111222' 
TCOON,ioos:station:TCOON:009:1,2017-03-01T07:36:00Z,27.8398,-97.0727,0.0,5.3,171.0,10.5,'11111222,11111222,11111222' 
TCOON,ioos:station:TCOON:009:1,2017-03-01T07:42:00Z,27.8398,-97.0727,0.0,5.4,170.0,8.9,'11111222,11111222,11111222' 
TCOON,ioos:station:TCOON:009:1,2017-03-01T07:48:00Z,27.8398,-97.0727,0.0,3.8,175.0,7.7,'11111222,11111222,11111222' 
TCOON,ioos:station:TCOON:009:1,2017-03-01T07:54:00Z,27.8398,-97.0727,0.0,4.7,175.0,6.4,'11111222,11111222,11111222' 
TCOON,ioos:station:TCOON:009:1,2017-03-01T08:00:00Z,27.8398,-97.0727,0.0,5.4,176.0,7.3,'11111222,11111222,11111222' 
TCOON,ioos:station:TCOON:009:1,2017-03-01T08:06:00Z,27.8398,-97.0727,0.0,4.1,173.0,6.5,'11111222,11111222,11111222' 
TCOON,ioos:station:TCOON:009:1,2017-03-01T08:12:00Z,27.8398,-97.0727,0.0,5.2,174.0,7.5,'11111222,11111222,11111222' 
TCOON,ioos:station:TCOON:009:1,2017-03-01T08:18:00Z,27.8398,-97.0727,0.0,5.2,174.0,7.5,'1111122,1111122,1111122' 
TCOON,ioos:station:TCOON:009:1,2017-03-01T08:24:00Z,27.8398,-97.0727,0.0,4.1,173.0,7.8,'11111222,11111222,11111222' 
TCOON,ioos:station:TCOON:009:1,2017-03-01T08:30:00Z,27.8398,-97.0727,0.0,5.5,176.0,8.5,'11111222,11111222,11111222' 
TCOON,ioos:station:TCOON:009:1,2017-03-01T08:36:00Z,27.8398,-97.0727,0.0,6.0,177.0,8.4,'11111222,11111222,11111222' 
TCOON,ioos:station:TCOON:009:1,2017-03-01T08:42:00Z,27.8398,-97.0727,0.0,5.3,182.0,7.4,'11111222,11111222,11111222' 
TCOON,ioos:station:TCOON:009:1,2017-03-01T08:48:00Z,27.8398,-97.0727,0.0,4.7,183.0,7.4,'11111222,11111222,11111222' 
TCOON,ioos:station:TCOON:009:1,2017-03-01T08:54:00Z,27.8398,-97.0727,0.0,5.0,183.0,7.4,'11111222,11111222,11111222' 
TCOON,ioos:station:TCOON:009:1,2017-03-01T09:00:00Z,27.8398,-97.0727,0.0,5.0,180.0,8.5,'11111222,11111222,11111222' 
TCOON,ioos:station:TCOON:009:1,2017-03-01T09:06:00Z,27.8398,-97.0727,0.0,4.4,183.0,7.0,'11111222,11111222,11111222' 
TCOON,ioos:station:TCOON:009:1,2017-03-01T09:12:00Z,27.8398,-97.0727,0.0,4.3,184.0,6.7,'11111222,11111222,11111222' 
TCOON,ioos:station:TCOON:009:1,2017-03-01T09:18:00Z,27.8398,-97.0727,0.0,4.3,184.0,6.7,'1111122,1111122,1111122' 
TCOON,ioos:station:TCOON:009:1,2017-03-01T09:24:00Z,27.8398,-97.0727,0.0,5.3,181.0,8.9,'11111222,11111222,11111222' 
TCOON,ioos:station:TCOON:009:1,2017-03-01T09:30:00Z,27.8398,-97.0727,0.0,5.6,184.0,7.3,'11111222,11111222,11111222' 
TCOON,ioos:station:TCOON:009:1,2017-03-01T09:36:00Z,27.8398,-97.0727,0.0,4.0,187.0,6.5,'11111222,11111222,11111222' 
TCOON,ioos:station:TCOON:009:1,2017-03-01T09:42:00Z,27.8398,-97.0727,0.0,3.4,195.0,6.5,'11111222,11111222,11111222' 
TCOON,ioos:station:TCOON:009:1,2017-03-01T09:48:00Z,27.8398,-97.0727,0.0,4.1,191.0,6.7,'11111222,11111222,11111222' 
TCOON,ioos:station:TCOON:009:1,2017-03-01T09:54:00Z,27.8398,-97.0727,0.0,3.7,198.0,5.4,'11111222,11111222,11111222' 
TCOON,ioos:station:TCOON:009:1,2017-03-01T10:00:00Z,27.8398,-97.0727,0.0,3.7,188.0,6.2,'11111222,11111222,11111222' 
TCOON,ioos:station:TCOON:009:1,2017-03-01T10:06:00Z,27.8398,-97.0727,0.0,4.7,184.0,6.1,'11111222,11111222,11111222' 
TCOON,ioos:station:TCOON:009:1,2017-03-01T10:12:00Z,27.8398,-97.0727,0.0,3.5,187.0,5.8,'11111222,11111222,11111222' 
TCOON,ioos:station:TCOON:009:1,2017-03-01T10:18:00Z,27.8398,-97.0727,0.0,3.5,187.0,5.8,'1111122,1111122,1111122' 
TCOON,ioos:station:TCOON:009:1,2017-03-01T10:24:00Z,27.8398,-97.0727,0.0,4.0,179.0,5.8,'11111222,11111222,11111222' 
TCOON,ioos:station:TCOON:009:1,2017-03-01T10:30:00Z,27.8398,-97.0727,0.0,3.7,177.0,5.7,'11111222,11111222,11111222' 
TCOON,ioos:station:TCOON:009:1,2017-03-01T10:36:00Z,27.8398,-97.0727,0.0,4.2,178.0,5.3,'11111222,11111222,11111222' 
TCOON,ioos:station:TCOON:009:1,2017-03-01T10:42:00Z,27.8398,-97.0727,0.0,3.7,173.0,5.9,'11111222,11111222,11111222' 
TCOON,ioos:station:TCOON:009:1,2017-03-01T10:48:00Z,27.8398,-97.0727,0.0,3.0,169.0,5.2,'11111222,11111222,11111222' 
TCOON,ioos:station:TCOON:009:1,2017-03-01T10:54:00Z,27.8398,-97.0727,0.0,3.4,169.0,4.7,'11111222,11111222,11111222' 
TCOON,ioos:station:TCOON:009:1,2017-03-01T11:00:00Z,27.8398,-97.0727,0.0,2.3,164.0,5.6,'11111222,11111222,11111222' 
TCOON,ioos:station:TCOON:009:1,2017-03-01T11:06:00Z,27.8398,-97.0727,0.0,2.8,154.0,4.1,'11111222,11111222,11111222' 
TCOON,ioos:station:TCOON:009:1,2017-03-01T11:12:00Z,27.8398,-97.0727,0.0,2.3,162.0,3.8,'11111222,11111222,11111222' 
TCOON,ioos:station:TCOON:009:1,2017-03-01T11:18:00Z,27.8398,-97.0727,0.0,2.3,162.0,3.8,'1111122,1111122,1111122' 
TCOON,ioos:station:TCOON:009:1,2017-03-01T11:24:00Z,27.8398,-97.0727,0.0,2.0,158.0,4.4,'11111222,11111222,11111222' 
TCOON,ioos:station:TCOON:009:1,2017-03-01T11:30:00Z,27.8398,-97.0727,0.0,2.9,151.0,5.2,'11111222,11111222,11111222' 
TCOON,ioos:station:TCOON:009:1,2017-03-01T11:36:00Z,27.8398,-97.0727,0.0,3.3,156.0,4.6,'11111222,11111222,11111222' 
TCOON,ioos:station:TCOON:009:1,2017-03-01T11:42:00Z,27.8398,-97.0727,0.0,3.7,166.0,6.0,'11111222,11111222,11111222' 
TCOON,ioos:station:TCOON:009:1,2017-03-01T11:48:00Z,27.8398,-97.0727,0.0,3.1,167.0,5.7,'11111222,11111222,11111222' 
TCOON,ioos:station:TCOON:009:1,2017-03-01T11:54:00Z,27.8398,-97.0727,0.0,3.2,161.0,5.6,'11111222,11111222,11111222' 
TCOON,ioos:station:TCOON:009:1,2017-03-01T12:00:00Z,27.8398,-97.0727,0.0,3.7,165.0,5.9,'11111222,11111222,11111222' 
TCOON,ioos:station:TCOON:009:1,2017-03-01T12:06:00Z,27.8398,-97.0727,0.0,3.1,168.0,5.9,'11111222,11111222,11111222' 
TCOON,ioos:station:TCOON:009:1,2017-03-01T12:12:00Z,27.8398,-97.0727,0.0,3.4,175.0,6.1,'11111222,11111222,11111222' 
TCOON,ioos:station:TCOON:009:1,2017-03-01T12:18:00Z,27.8398,-97.0727,0.0,3.4,175.0,6.1,'1111122,1111122,1111122' 
TCOON,ioos:station:TCOON:009:1,2017-03-01T12:24:00Z,27.8398,-97.0727,0.0,3.2,169.0,5.6,'11111222,11111222,11111222' 
TCOON,ioos:station:TCOON:009:1,2017-03-01T12:30:00Z,27.8398,-97.0727,0.0,2.8,171.0,4.5,'11111222,11111222,11111222' 
TCOON,ioos:station:TCOON:009:1,2017-03-01T12:36:00Z,27.8398,-97.0727,0.0,3.7,177.0,5.0,'11111222,11111222,11111222' 
TCOON,ioos:station:TCOON:009:1,2017-03-01T12:42:00Z,27.8398,-97.0727,0.0,2.9,170.0,4.4,'11111222,11111222,11111222' 
TCOON,ioos:station:TCOON:009:1,2017-03-01T12:48:00Z,27.8398,-97.0727,0.0,3.1,165.0,4.5,'11111222,11111222,11111222' 
TCOON,ioos:station:TCOON:009:1,2017-03-01T12:54:00Z,27.8398,-97.0727,0.0,2.5,160.0,4.5,'11111222,11111222,11111222' 
TCOON,ioos:station:TCOON:009:1,2017-03-01T13:00:00Z,27.8398,-97.0727,0.0,3.0,167.0,4.4,'11111222,11111222,11111222' 
TCOON,ioos:station:TCOON:009:1,2017-03-01T13:06:00Z,27.8398,-97.0727,0.0,3.4,170.0,5.7,'11111222,11111222,11111222' 
TCOON,ioos:station:TCOON:009:1,2017-03-01T13:12:00Z,27.8398,-97.0727,0.0,3.6,171.0,5.0,'11111222,11111222,11111222' 
TCOON,ioos:station:TCOON:009:1,2017-03-01T13:18:00Z,27.8398,-97.0727,0.0,3.6,171.0,5.0,'1111122,1111122,1111122' 
TCOON,ioos:station:TCOON:009:1,2017-03-01T13:24:00Z,27.8398,-97.0727,0.0,3.6,172.0,5.3,'11111222,11111222,11111222' 
TCOON,ioos:station:TCOON:009:1,2017-03-01T13:30:00Z,27.8398,-97.0727,0.0,3.0,169.0,4.9,'11111222,11111222,11111222' 
TCOON,ioos:station:TCOON:009:1,2017-03-01T13:36:00Z,27.8398,-97.0727,0.0,2.7,171.0,4.6,'11111222,11111222,11111222' 
TCOON,ioos:station:TCOON:009:1,2017-03-01T13:42:00Z,27.8398,-97.0727,0.0,2.6,173.0,5.2,'11111222,11111222,11111222' 
TCOON,ioos:station:TCOON:009:1,2017-03-01T13:48:00Z,27.8398,-97.0727,0.0,2.7,174.0,4.2,'11111222,11111222,11111222' 
TCOON,ioos:station:TCOON:009:1,2017-03-01T13:54:00Z,27.8398,-97.0727,0.0,2.0,176.0,3.8,'11111222,11111222,11111222' 
TCOON,ioos:station:TCOON:009:1,2017-03-01T14:00:00Z,27.8398,-97.0727,0.0,1.7,187.0,4.0,'11111222,11111222,11111222' 
TCOON,ioos:station:TCOON:009:1,2017-03-01T14:06:00Z,27.8398,-97.0727,0.0,1.2,204.0,2.6,'11111222,11111222,11111222' 
TCOON,ioos:station:TCOON:009:1,2017-03-01T14:12:00Z,27.8398,-97.0727,0.0,1.5,293.0,1.9,'11111222,11111222,11111222' 
TCOON,ioos:station:TCOON:009:1,2017-03-01T14:18:00Z,27.8398,-97.0727,0.0,1.5,293.0,1.9,'1111122,1111122,1111122' 
TCOON,ioos:station:TCOON:009:1,2017-03-01T14:24:00Z,27.8398,-97.0727,0.0,1.8,311.0,2.3,'11111222,11111222,11111222' 
TCOON,ioos:station:TCOON:009:1,2017-03-01T14:30:00Z,27.8398,-97.0727,0.0,2.8,312.0,3.0,'11111222,11111222,11111222' 
TCOON,ioos:station:TCOON:009:1,2017-03-01T14:36:00Z,27.8398,-97.0727,0.0,2.0,328.0,3.3,'11111222,11111222,11111222' 
TCOON,ioos:station:TCOON:009:1,2017-03-01T14:42:00Z,27.8398,-97.0727,0.0,2.7,338.0,3.7,'11111222,11111222,11111222' 
TCOON,ioos:station:TCOON:009:1,2017-03-01T14:48:00Z,27.8398,-97.0727,0.0,1.9,317.0,2.4,'11111222,11111222,11111222' 
TCOON,ioos:station:TCOON:009:1,2017-03-01T14:54:00Z,27.8398,-97.0727,0.0,1.3,332.0,2.4,'11111222,11111222,11111222' 
TCOON,ioos:station:TCOON:009:1,2017-03-01T15:00:00Z,27.8398,-97.0727,0.0,2.3,345.0,3.8,'11111222,11111222,11111222' 
TCOON,ioos:station:TCOON:009:1,2017-03-01T15:06:00Z,27.8398,-97.0727,0.0,3.1,354.0,3.7,'11111222,11111222,11111222' 
TCOON,ioos:station:TCOON:009:1,2017-03-01T15:12:00Z,27.8398,-97.0727,0.0,3.1,3.0,4.0,'11111222,11111222,11111222' 
TCOON,ioos:station:TCOON:009:1,2017-03-01T15:18:00Z,27.8398,-97.0727,0.0,3.1,3.0,4.0,'1111122,1111122,1111122' 
TCOON,ioos:station:TCOON:009:1,2017-03-01T15:24:00Z,27.8398,-97.0727,0.0,2.9,17.0,3.6,'11111222,11111222,11111222' 
TCOON,ioos:station:TCOON:009:1,2017-03-01T15:30:00Z,27.8398,-97.0727,0.0,2.5,19.0,3.5,'11111222,11111222,11111222' 
TCOON,ioos:station:TCOON:009:1,2017-03-01T15:36:00Z,27.8398,-97.0727,0.0,2.7,23.0,3.2,'11111222,11111222,11111222' 
TCOON,ioos:station:TCOON:009:1,2017-03-01T15:42:00Z,27.8398,-97.0727,0.0,2.7,23.0,3.1,'11111222,11111222,11111222' 
TCOON,ioos:station:TCOON:009:1,2017-03-01T15:48:00Z,27.8398,-97.0727,0.0,2.5,25.0,3.0,'11111222,11111222,11111222' 
TCOON,ioos:station:TCOON:009:1,2017-03-01T15:54:00Z,27.8398,-97.0727,0.0,2.2,75.0,2.9,'11111222,11111222,11111222' 
TCOON,ioos:station:TCOON:009:1,2017-03-01T16:00:00Z,27.8398,-97.0727,0.0,2.5,59.0,3.0,'11111222,11111222,11111222' 
TCOON,ioos:station:TCOON:009:1,2017-03-01T16:06:00Z,27.8398,-97.0727,0.0,2.9,59.0,3.3,'11111222,11111222,11111222' 
TCOON,ioos:station:TCOON:009:1,2017-03-01T16:12:00Z,27.8398,-97.0727,0.0,2.3,51.0,2.8,'11111222,11111222,11111222' 
TCOON,ioos:station:TCOON:009:1,2017-03-01T16:18:00Z,27.8398,-97.0727,0.0,2.3,51.0,2.8,'1111122,1111122,1111122' 
TCOON,ioos:station:TCOON:009:1,2017-03-01T16:24:00Z,27.8398,-97.0727,0.0,2.8,77.0,3.2,'11111222,11111222,11111222' 
TCOON,ioos:station:TCOON:009:1,2017-03-01T16:30:00Z,27.8398,-97.0727,0.0,3.0,67.0,3.3,'11111222,11111222,11111222' 
TCOON,ioos:station:TCOON:009:1,2017-03-01T16:36:00Z,27.8398,-97.0727,0.0,2.8,68.0,3.1,'11111222,11111222,11111222' 
TCOON,ioos:station:TCOON:009:1,2017-03-01T16:42:00Z,27.8398,-97.0727,0.0,2.3,72.0,3.0,'11111222,11111222,11111222' 
TCOON,ioos:station:TCOON:009:1,2017-03-01T16:48:00Z,27.8398,-97.0727,0.0,2.5,65.0,2.8,'11111222,11111222,11111222' 
TCOON,ioos:station:TCOON:009:1,2017-03-01T16:54:00Z,27.8398,-97.0727,0.0,1.9,77.0,2.7,'11111222,11111222,11111222' 
TCOON,ioos:station:TCOON:009:1,2017-03-01T17:00:00Z,27.8398,-97.0727,0.0,2.2,75.0,2.5,'11111222,11111222,11111222' 
TCOON,ioos:station:TCOON:009:1,2017-03-01T17:06:00Z,27.8398,-97.0727,0.0,2.1,76.0,2.6,'11111222,11111222,11111222' 
TCOON,ioos:station:TCOON:009:1,2017-03-01T17:12:00Z,27.8398,-97.0727,0.0,1.4,72.0,2.4,'11111222,11111222,11111222' 
TCOON,ioos:station:TCOON:009:1,2017-03-01T17:18:00Z,27.8398,-97.0727,0.0,1.4,72.0,2.4,'1111122,1111122,1111122' 
TCOON,ioos:station:TCOON:009:1,2017-03-01T17:24:00Z,27.8398,-97.0727,0.0,2.2,101.0,3.1,'11111222,11111222,11111222' 
TCOON,ioos:station:TCOON:009:1,2017-03-01T17:30:00Z,27.8398,-97.0727,0.0,3.0,91.0,4.2,'11111222,11111222,11111222' 
TCOON,ioos:station:TCOON:009:1,2017-03-01T17:36:00Z,27.8398,-97.0727,0.0,3.3,90.0,4.2,'11111222,11111222,11111222' 
TCOON,ioos:station:TCOON:009:1,2017-03-01T17:42:00Z,27.8398,-97.0727,0.0,3.0,86.0,3.7,'11111222,11111222,11111222' 
TCOON,ioos:station:TCOON:009:1,2017-03-01T17:48:00Z,27.8398,-97.0727,0.0,4.1,70.0,4.8,'11111222,11111222,11111222' 
TCOON,ioos:station:TCOON:009:1,2017-03-01T17:54:00Z,27.8398,-97.0727,0.0,3.7,75.0,4.9,'11111222,11111222,11111222' 
TCOON,ioos:station:TCOON:009:1,2017-03-01T18:00:00Z,27.8398,-97.0727,0.0,2.7,90.0,3.9,'11111222,11111222,11111222' 
TCOON,ioos:station:TCOON:009:1,2017-03-01T18:06:00Z,27.8398,-97.0727,0.0,2.8,82.0,4.1,'11111222,11111222,11111222' 
TCOON,ioos:station:TCOON:009:1,2017-03-01T18:12:00Z,27.8398,-97.0727,0.0,2.5,83.0,3.9,'11111222,11111222,11111222' 
TCOON,ioos:station:TCOON:009:1,2017-03-01T18:18:00Z,27.8398,-97.0727,0.0,2.5,83.0,3.9,'1111122,1111122,1111122' 
TCOON,ioos:station:TCOON:009:1,2017-03-01T18:24:00Z,27.8398,-97.0727,0.0,2.7,100.0,3.7,'11111222,11111222,11111222' 
TCOON,ioos:station:TCOON:009:1,2017-03-01T18:30:00Z,27.8398,-97.0727,0.0,2.6,97.0,3.5,'11111222,11111222,11111222' 
TCOON,ioos:station:TCOON:009:1,2017-03-01T18:36:00Z,27.8398,-97.0727,0.0,2.0,91.0,3.2,'11111222,11111222,11111222' 
TCOON,ioos:station:TCOON:009:1,2017-03-01T18:42:00Z,27.8398,-97.0727,0.0,2.2,99.0,3.6,'11111222,11111222,11111222' 
TCOON,ioos:station:TCOON:009:1,2017-03-01T18:48:00Z,27.8398,-97.0727,0.0,3.0,103.0,3.6,'11111222,11111222,11111222' 
TCOON,ioos:station:TCOON:009:1,2017-03-01T18:54:00Z,27.8398,-97.0727,0.0,2.4,113.0,3.8,'11111222,11111222,11111222' 
TCOON,ioos:station:TCOON:009:1,2017-03-01T19:00:00Z,27.8398,-97.0727,0.0,2.0,109.0,3.6,'11111222,11111222,11111222' 
TCOON,ioos:station:TCOON:009:1,2017-03-01T19:06:00Z,27.8398,-97.0727,0.0,1.9,103.0,3.5,'11111222,11111222,11111222' 
TCOON,ioos:station:TCOON:009:1,2017-03-01T19:12:00Z,27.8398,-97.0727,0.0,2.5,123.0,3.5,'11111222,11111222,11111222' 
TCOON,ioos:station:TCOON:009:1,2017-03-01T19:18:00Z,27.8398,-97.0727,0.0,2.5,123.0,3.5,'1111122,1111122,1111122' 
TCOON,ioos:station:TCOON:009:1,2017-03-01T19:24:00Z,27.8398,-97.0727,0.0,2.6,126.0,3.4,'11111222,11111222,11111222' 
TCOON,ioos:station:TCOON:009:1,2017-03-01T19:30:00Z,27.8398,-97.0727,0.0,2.4,128.0,3.2,'11111222,11111222,11111222' 
TCOON,ioos:station:TCOON:009:1,2017-03-01T19:36:00Z,27.8398,-97.0727,0.0,1.8,132.0,3.5,'11111222,11111222,11111222' 
TCOON,ioos:station:TCOON:009:1,2017-03-01T19:42:00Z,27.8398,-97.0727,0.0,1.9,115.0,2.8,'11111222,11111222,11111222' 
TCOON,ioos:station:TCOON:009:1,2017-03-01T19:48:00Z,27.8398,-97.0727,0.0,3.1,103.0,3.8,'11111222,11111222,11111222' 
TCOON,ioos:station:TCOON:009:1,2017-03-01T19:54:00Z,27.8398,-97.0727,0.0,2.6,99.0,3.5,'11111222,11111222,11111222' 
TCOON,ioos:station:TCOON:009:1,2017-03-01T20:00:00Z,27.8398,-97.0727,0.0,3.1,59.0,3.7,'11111222,11111222,11111222' 
TCOON,ioos:station:TCOON:009:1,2017-03-01T20:06:00Z,27.8398,-97.0727,0.0,3.7,46.0,4.3,'11111222,11111222,11111222' 
TCOON,ioos:station:TCOON:009:1,2017-03-01T20:12:00Z,27.8398,-97.0727,0.0,3.1,37.0,4.2,'11111222,11111222,11111222' 
TCOON,ioos:station:TCOON:009:1,2017-03-01T20:18:00Z,27.8398,-97.0727,0.0,3.1,37.0,4.2,'1111122,1111122,1111122' 
TCOON,ioos:station:TCOON:009:1,2017-03-01T20:24:00Z,27.8398,-97.0727,0.0,3.3,46.0,3.7,'11111222,11111222,11111222' 